Location: Archemont
(49.1579°N, 1.7598°E)
Time: 10:05:45
(UTC+00:00)

deb Explorer IX - Pass Details

Date: 21 April 2024
Orbit: 513 x 891 km, 38.7° (Epoch: 23 May)

Event Time Altitude Azimuth Distance (km) Brightness Sun altitude
Rises 09:33:00 0° 200° (SSW) 3,313 ? 43.2°
Reaches altitude 10° 09:36:55 10° 174° (S) 2,460 ? 43.7°
Maximum altitude 09:39:27 13° 148° (SSE) 2,294 ? 44.0°
Drops below altitude 10° 09:42:04 10° 122° (ESE) 2,536 ? 44.3°
Sets 09:46:13 0° 97° (E) 3,512 ? 44.8°
